EWG35C LOWL-EDDV

Flight info

Callsign EWG35C
Flight time 1h 12m
Altitude 38000
Route LIDSI DCT LAMSI L604 RUDNO M736 AKOSI DCT LASGA M726 LASTO/N0407F300 M852 BIRKA/N0367F240 T803 GITEX GITEX1X
Aircraft A320/M-SDE3FGHIRWY/LB1

Departure

Time 2026-04-20 15:40
Airport Linz-Hörsching Airport (LOWL)

Arrival

Time 2026-04-20 16:52
Airport Hannover Airport (EDDV)
Time Latitude Longitude Altitude Speed Heading
2026-04-20 15:22 48.23837 14.19012 986 ft 0 kts 87°
2026-04-20 15:25 48.23837 14.19011 986 ft 0 kts 87°
2026-04-20 15:37 48.23838 14.19031 986 ft 6 kts 87°
2026-04-20 15:37 48.23807 14.19075 986 ft 9 kts 175°
2026-04-20 15:38 48.23753 14.19134 991 ft 13 kts 96°
2026-04-20 15:38 48.23758 14.19291 990 ft 17 kts 86°
2026-04-20 15:38 48.23765 14.19494 986 ft 22 kts 87°
2026-04-20 15:38 48.23716 14.19616 990 ft 16 kts 158°
2026-04-20 15:39 48.23596 14.19687 987 ft 21 kts 159°
2026-04-20 15:39 48.23444 14.19777 990 ft 26 kts 159°
2026-04-20 15:39 48.23359 14.19744 986 ft 10 kts 262°
2026-04-20 15:39 48.23347 14.19415 986 ft 71 kts 268°
2026-04-20 15:40 48.23305 14.18264 989 ft 146 kts 266°
2026-04-20 15:40 48.23232 14.16607 1543 ft 163 kts 267°
2026-04-20 15:40 48.23155 14.14803 2282 ft 185 kts 268°
2026-04-20 15:40 48.23090 14.12749 3015 ft 210 kts 269°
2026-04-20 15:41 48.23021 14.10427 3804 ft 235 kts 269°
2026-04-20 15:41 48.23134 14.07923 4836 ft 246 kts 288°
2026-04-20 15:41 48.23977 14.05726 6040 ft 252 kts 314°
2026-04-20 15:41 48.25346 14.04023 6987 ft 255 kts 320°
2026-04-20 15:42 48.26755 14.02427 7850 ft 257 kts 320°
2026-04-20 15:42 48.28199 14.00814 8724 ft 260 kts 320°
2026-04-20 15:42 48.29656 13.99183 9580 ft 263 kts 319°
2026-04-20 15:42 48.31134 13.97522 10316 ft 271 kts 319°
2026-04-20 15:43 48.32704 13.95741 10563 ft 294 kts 319°
2026-04-20 15:43 48.34380 13.93838 11066 ft 306 kts 319°
2026-04-20 15:43 48.36093 13.91897 11803 ft 311 kts 320°
2026-04-20 15:43 48.37827 13.89929 12581 ft 314 kts 320°
2026-04-20 15:44 48.39578 13.87934 13356 ft 317 kts 320°
2026-04-20 15:44 48.40747 13.86600 13846 ft 318 kts 320°
2026-04-20 15:44 48.42519 13.84575 14522 ft 321 kts 320°
2026-04-20 15:44 48.44306 13.82527 15160 ft 324 kts 320°
2026-04-20 15:45 48.46111 13.80462 15762 ft 327 kts 320°
2026-04-20 15:45 48.47934 13.78377 15982 ft 329 kts 320°
2026-04-20 15:45 48.49756 13.76294 16034 ft 329 kts 320°
2026-04-20 15:45 48.51587 13.74190 16539 ft 332 kts 320°
2026-04-20 15:46 48.53429 13.72068 17226 ft 334 kts 320°
2026-04-20 15:46 48.55283 13.69934 17882 ft 337 kts 320°
2026-04-20 15:46 48.57162 13.67771 18503 ft 341 kts 320°
2026-04-20 15:46 48.59052 13.65597 19079 ft 343 kts 319°
2026-04-20 15:47 48.60954 13.63400 19665 ft 345 kts 319°
2026-04-20 15:47 48.62867 13.61189 20267 ft 347 kts 319°
2026-04-20 15:47 48.64790 13.58961 20854 ft 349 kts 318°
2026-04-20 15:47 48.66579 13.56482 21429 ft 349 kts 312°
2026-04-20 15:48 48.68307 13.53883 22026 ft 351 kts 312°
2026-04-20 15:48 48.70045 13.51276 22595 ft 353 kts 312°
2026-04-20 15:48 48.71802 13.48641 23163 ft 356 kts 312°
2026-04-20 15:48 48.73564 13.46001 23678 ft 358 kts 312°
2026-04-20 15:49 48.75344 13.43328 24122 ft 360 kts 312°
2026-04-20 15:49 48.77123 13.40650 24602 ft 361 kts 312°
2026-04-20 15:49 48.78909 13.37960 25059 ft 362 kts 312°
2026-04-20 15:49 48.80705 13.35252 25481 ft 364 kts 312°
2026-04-20 15:50 48.82477 13.32575 25907 ft 365 kts 312°
2026-04-20 15:50 48.84279 13.29847 26317 ft 366 kts 311°
2026-04-20 15:50 48.86084 13.27112 26709 ft 368 kts 312°
2026-04-20 15:50 48.87905 13.24359 27103 ft 369 kts 312°
2026-04-20 15:51 48.89732 13.21599 27492 ft 371 kts 312°
2026-04-20 15:51 48.91564 13.18823 27871 ft 372 kts 312°
2026-04-20 15:51 48.93402 13.16031 28251 ft 374 kts 312°
2026-04-20 15:51 48.95247 13.13224 28616 ft 376 kts 312°
2026-04-20 15:52 48.97101 13.10402 28981 ft 378 kts 312°
2026-04-20 15:52 48.98964 13.07558 29321 ft 379 kts 312°
2026-04-20 15:52 49.00834 13.04699 29637 ft 381 kts 312°
2026-04-20 15:53 49.04595 12.98933 30266 ft 385 kts 312°
2026-04-20 15:53 49.06457 12.96076 30483 ft 388 kts 312°
2026-04-20 15:53 49.08369 12.93145 30700 ft 390 kts 312°
2026-04-20 15:53 49.10293 12.90195 30927 ft 393 kts 312°
2026-04-20 15:54 49.12226 12.87223 31126 ft 396 kts 312°
2026-04-20 15:54 49.14172 12.84223 31323 ft 398 kts 312°
2026-04-20 15:54 49.16122 12.81212 31581 ft 399 kts 312°
2026-04-20 15:54 49.18072 12.78203 31863 ft 399 kts 312°
2026-04-20 15:55 49.20031 12.75181 32147 ft 400 kts 313°
2026-04-20 15:55 49.21986 12.72161 32436 ft 400 kts 313°
2026-04-20 15:55 49.23943 12.69128 32715 ft 400 kts 313°
2026-04-20 15:55 49.25905 12.66084 32998 ft 401 kts 313°
2026-04-20 15:56 49.27864 12.63046 33283 ft 401 kts 313°
2026-04-20 15:56 49.29823 12.60003 33569 ft 401 kts 313°
2026-04-20 15:56 49.31781 12.56961 33861 ft 402 kts 313°
2026-04-20 15:56 49.33777 12.53956 34142 ft 403 kts 317°
2026-04-20 15:57 49.35964 12.51261 34366 ft 404 kts 319°
2026-04-20 15:57 49.38143 12.48621 34567 ft 405 kts 319°
2026-04-20 15:57 49.40384 12.45900 34793 ft 405 kts 319°
2026-04-20 15:57 49.42570 12.43240 34982 ft 406 kts 319°
2026-04-20 15:58 49.44784 12.40540 35183 ft 407 kts 319°
2026-04-20 15:58 49.47035 12.37790 35371 ft 408 kts 319°
2026-04-20 15:58 49.49260 12.35068 35555 ft 409 kts 319°
2026-04-20 15:58 49.51483 12.32340 35740 ft 409 kts 319°
2026-04-20 15:59 49.53719 12.29604 35925 ft 410 kts 320°
2026-04-20 15:59 49.55926 12.26904 36110 ft 411 kts 320°
2026-04-20 15:59 49.58191 12.24129 36291 ft 411 kts 320°
2026-04-20 15:59 49.60430 12.21385 36469 ft 412 kts 320°
2026-04-20 16:00 49.62675 12.18626 36627 ft 413 kts 320°
2026-04-20 16:00 49.64925 12.15851 36796 ft 413 kts 320°
2026-04-20 16:00 49.67169 12.13074 36953 ft 414 kts 320°
2026-04-20 16:00 49.69386 12.10326 37110 ft 414 kts 320°
2026-04-20 16:01 49.71645 12.07523 37259 ft 415 kts 319°
2026-04-20 16:01 49.73881 12.04694 37415 ft 416 kts 319°
2026-04-20 16:01 49.76097 12.01841 37562 ft 416 kts 319°
2026-04-20 16:01 49.77326 12.00236 37640 ft 416 kts 318°
2026-04-20 16:02 49.79533 11.97336 37776 ft 417 kts 318°
2026-04-20 16:02 49.81749 11.94433 37928 ft 417 kts 319°
2026-04-20 16:02 49.83978 11.91525 38051 ft 418 kts 319°
2026-04-20 16:02 49.86211 11.88622 38072 ft 419 kts 319°
2026-04-20 16:03 49.90685 11.82807 38078 ft 419 kts 319°
2026-04-20 16:03 49.95158 11.76960 38078 ft 420 kts 319°
2026-04-20 16:04 49.99591 11.71147 38094 ft 420 kts 319°
2026-04-20 16:04 50.04047 11.65278 38092 ft 420 kts 319°
2026-04-20 16:05 50.08511 11.59409 38092 ft 420 kts 319°
2026-04-20 16:05 50.12982 11.53512 38089 ft 421 kts 319°
2026-04-20 16:06 50.17449 11.47600 38098 ft 421 kts 319°
2026-04-20 16:06 50.21921 11.41670 38098 ft 421 kts 319°
2026-04-20 16:07 50.26387 11.35745 38102 ft 422 kts 319°
2026-04-20 16:07 50.30848 11.29789 38107 ft 422 kts 319°
2026-04-20 16:08 50.35622 11.24459 38112 ft 424 kts 333°
2026-04-20 16:08 50.41312 11.22008 38115 ft 430 kts 352°
2026-04-20 16:09 50.47274 11.21115 38108 ft 431 kts 352°
2026-04-20 16:09 50.53246 11.20213 38113 ft 431 kts 352°
2026-04-20 16:10 50.59217 11.19316 38116 ft 431 kts 352°
2026-04-20 16:10 50.65187 11.18407 38114 ft 431 kts 352°
2026-04-20 16:11 50.71157 11.17496 38121 ft 431 kts 352°
2026-04-20 16:11 50.77128 11.16586 38124 ft 431 kts 352°
2026-04-20 16:12 50.83102 11.15669 38128 ft 431 kts 352°
2026-04-20 16:12 50.89078 11.14757 38133 ft 431 kts 352°
2026-04-20 16:13 50.95061 11.13843 38136 ft 432 kts 352°
2026-04-20 16:13 51.01036 11.12915 38135 ft 432 kts 352°
2026-04-20 16:14 51.07016 11.11981 38131 ft 432 kts 352°
2026-04-20 16:14 51.12964 11.10665 38131 ft 429 kts 342°
2026-04-20 16:15 51.15759 11.09070 37935 ft 426 kts 335°
2026-04-20 16:15 51.18480 11.07148 37254 ft 426 kts 334°
2026-04-20 16:15 51.21186 11.05211 36564 ft 427 kts 334°
2026-04-20 16:15 51.23897 11.03260 35926 ft 426 kts 334°
2026-04-20 16:16 51.26588 11.01323 35451 ft 422 kts 334°
2026-04-20 16:16 51.29255 10.99409 34979 ft 418 kts 334°
2026-04-20 16:16 51.31868 10.97537 34529 ft 414 kts 334°
2026-04-20 16:16 51.34487 10.95657 34076 ft 410 kts 334°
2026-04-20 16:17 51.37085 10.93788 33556 ft 407 kts 335°
2026-04-20 16:17 51.39659 10.91967 33033 ft 404 kts 336°
2026-04-20 16:17 51.42252 10.90239 32532 ft 401 kts 337°
2026-04-20 16:17 51.44830 10.88587 32062 ft 398 kts 338°
2026-04-20 16:18 51.47393 10.86968 31599 ft 394 kts 338°
2026-04-20 16:18 51.49940 10.85356 31147 ft 391 kts 338°
2026-04-20 16:18 51.52453 10.83748 30698 ft 388 kts 338°
2026-04-20 16:18 51.54944 10.82134 30243 ft 386 kts 339°
2026-04-20 16:19 51.57436 10.80507 29692 ft 383 kts 339°
2026-04-20 16:19 51.59902 10.78890 29197 ft 380 kts 339°
2026-04-20 16:19 51.62348 10.77287 28703 ft 377 kts 339°
2026-04-20 16:19 51.64743 10.75716 28230 ft 375 kts 339°
2026-04-20 16:20 51.67149 10.74139 27774 ft 372 kts 339°
2026-04-20 16:20 51.69541 10.72570 27310 ft 369 kts 339°
2026-04-20 16:20 51.71911 10.71008 26865 ft 366 kts 339°
2026-04-20 16:20 51.74262 10.69455 26429 ft 364 kts 339°
2026-04-20 16:21 51.76595 10.67914 25994 ft 361 kts 339°
2026-04-20 16:21 51.78915 10.66379 25557 ft 359 kts 339°
2026-04-20 16:21 51.81216 10.64853 25135 ft 356 kts 339°
2026-04-20 16:21 51.83500 10.63339 24706 ft 354 kts 339°
2026-04-20 16:22 51.85773 10.61834 24281 ft 351 kts 339°
2026-04-20 16:22 51.88031 10.60339 23861 ft 349 kts 339°
2026-04-20 16:22 51.89516 10.59355 23562 ft 347 kts 339°
2026-04-20 16:22 51.92480 10.57391 22935 ft 344 kts 339°
2026-04-20 16:23 51.93943 10.56420 22630 ft 342 kts 339°
2026-04-20 16:23 51.96140 10.54958 22194 ft 340 kts 339°
2026-04-20 16:23 51.98256 10.53262 21782 ft 339 kts 329°
2026-04-20 16:23 52.00129 10.50945 21354 ft 338 kts 318°
2026-04-20 16:24 52.01691 10.48080 20938 ft 338 kts 307°
2026-04-20 16:24 52.02973 10.44889 20521 ft 337 kts 304°
2026-04-20 16:24 52.04236 10.41691 20119 ft 335 kts 304°
2026-04-20 16:24 52.05489 10.38525 19725 ft 333 kts 304°
2026-04-20 16:25 52.06736 10.35370 19346 ft 331 kts 304°
2026-04-20 16:25 52.07974 10.32235 18966 ft 329 kts 304°
2026-04-20 16:25 52.09195 10.29131 18462 ft 324 kts 304°
2026-04-20 16:25 52.10406 10.26045 17711 ft 321 kts 304°
2026-04-20 16:26 52.11601 10.23003 17012 ft 318 kts 304°
2026-04-20 16:26 52.12787 10.19985 16376 ft 314 kts 304°
2026-04-20 16:26 52.13955 10.17005 15730 ft 310 kts 304°
2026-04-20 16:26 52.15121 10.14023 14866 ft 314 kts 304°
2026-04-20 16:27 52.16306 10.10995 13921 ft 320 kts 304°
2026-04-20 16:27 52.17508 10.07920 12871 ft 323 kts 304°
2026-04-20 16:27 52.18724 10.04808 11799 ft 328 kts 304°
2026-04-20 16:27 52.19955 10.01649 10733 ft 331 kts 304°
2026-04-20 16:28 52.21187 9.98481 9680 ft 331 kts 304°
2026-04-20 16:28 52.22417 9.95313 8578 ft 330 kts 304°
2026-04-20 16:28 52.23821 9.92410 7623 ft 321 kts 323°
2026-04-20 16:28 52.25692 9.90780 7224 ft 295 kts 347°
2026-04-20 16:29 52.27673 9.90605 6640 ft 281 kts 12°
2026-04-20 16:29 52.29496 9.91526 6041 ft 269 kts 25°
2026-04-20 16:29 52.31098 9.93006 5441 ft 261 kts 35°
2026-04-20 16:29 52.32498 9.94836 4840 ft 254 kts 40°
2026-04-20 16:30 52.33820 9.96700 4241 ft 248 kts 40°
2026-04-20 16:30 52.35110 9.98544 3641 ft 245 kts 40°
2026-04-20 16:30 52.36360 10.00338 3104 ft 241 kts 40°
2026-04-20 16:30 52.37584 10.02097 2973 ft 217 kts 38°
2026-04-20 16:31 52.38763 10.03351 2981 ft 196 kts 28°
2026-04-20 16:31 52.39958 10.04325 2980 ft 186 kts 18°
2026-04-20 16:31 52.41201 10.04678 2985 ft 183 kts
2026-04-20 16:31 52.42473 10.04819 2983 ft 183 kts
2026-04-20 16:32 52.43742 10.04830 2973 ft 184 kts 348°
2026-04-20 16:32 52.44803 10.03817 3007 ft 175 kts 316°
2026-04-20 16:32 52.45355 10.02106 2972 ft 168 kts 287°
2026-04-20 16:32 52.45328 10.00272 2987 ft 159 kts 259°
2026-04-20 16:33 52.44876 9.98652 2974 ft 154 kts 252°
2026-04-20 16:33 52.44664 9.96982 2978 ft 148 kts 276°
2026-04-20 16:33 52.44712 9.95309 2984 ft 147 kts 278°
2026-04-20 16:33 52.44760 9.93643 2981 ft 146 kts 278°
2026-04-20 16:34 52.44808 9.91989 3003 ft 145 kts 278°
2026-04-20 16:34 52.44856 9.90335 3009 ft 145 kts 278°
2026-04-20 16:34 52.44904 9.88678 3009 ft 145 kts 278°
2026-04-20 16:34 52.44952 9.87024 3005 ft 145 kts 278°
2026-04-20 16:35 52.44998 9.85370 3011 ft 145 kts 278°
2026-04-20 16:35 52.45043 9.83728 3010 ft 144 kts 278°
2026-04-20 16:35 52.45089 9.82075 3009 ft 144 kts 279°
2026-04-20 16:35 52.45137 9.80429 3015 ft 144 kts 279°
2026-04-20 16:36 52.45183 9.78808 3010 ft 144 kts 278°
2026-04-20 16:36 52.45228 9.77130 2679 ft 154 kts 276°
2026-04-20 16:36 52.45245 9.75220 1749 ft 177 kts 277°
2026-04-20 16:36 52.45341 9.73129 615 ft 191 kts 273°
2026-04-20 16:37 52.45400 9.71048 225 ft 169 kts 272°
2026-04-20 16:37 52.45457 9.69243 210 ft 150 kts 274°
2026-04-20 16:37 52.45503 9.67513 411 ft 166 kts 272°
2026-04-20 16:37 52.45560 9.65468 928 ft 193 kts 273°
2026-04-20 16:38 52.45581 9.63162 1754 ft 212 kts 274°
2026-04-20 16:38 52.45587 9.60656 2508 ft 223 kts 274°
2026-04-20 16:38 52.45540 9.58111 2929 ft 225 kts 264°
2026-04-20 16:38 52.44802 9.55859 3002 ft 232 kts 221°
2026-04-20 16:39 52.43320 9.54864 2988 ft 235 kts 185°
2026-04-20 16:39 52.41686 9.54891 2982 ft 235 kts 175°
2026-04-20 16:39 52.40094 9.55394 2978 ft 232 kts 151°
2026-04-20 16:39 52.38781 9.56885 3014 ft 230 kts 134°
2026-04-20 16:40 52.37726 9.58825 3012 ft 226 kts 120°
2026-04-20 16:40 52.36863 9.60965 3008 ft 226 kts 121°
2026-04-20 16:40 52.35967 9.63082 3012 ft 227 kts 121°
2026-04-20 16:40 52.35055 9.65199 3012 ft 228 kts 121°
2026-04-20 16:41 52.34141 9.67311 3009 ft 227 kts 121°
2026-04-20 16:41 52.33227 9.69424 3005 ft 228 kts 121°
2026-04-20 16:41 52.32315 9.71547 3003 ft 228 kts 121°
2026-04-20 16:41 52.31409 9.73661 3004 ft 226 kts 121°
2026-04-20 16:42 52.30505 9.75771 3005 ft 226 kts 121°
2026-04-20 16:42 52.29603 9.77874 3004 ft 227 kts 122°
2026-04-20 16:42 52.28697 9.79986 3000 ft 227 kts 122°
2026-04-20 16:42 52.27788 9.82097 3003 ft 227 kts 122°
2026-04-20 16:43 52.27001 9.84296 2997 ft 222 kts 105°
2026-04-20 16:43 52.26727 9.86735 2992 ft 216 kts 81°
2026-04-20 16:43 52.27049 9.89103 2996 ft 213 kts 69°
2026-04-20 16:43 52.27567 9.91363 2994 ft 211 kts 58°
2026-04-20 16:44 52.28501 9.93142 2990 ft 206 kts 32°
2026-04-20 16:44 52.29767 9.94232 2998 ft 205 kts 24°
2026-04-20 16:44 52.31055 9.95247 2997 ft 206 kts 24°
2026-04-20 16:44 52.32346 9.96259 3000 ft 206 kts 24°
2026-04-20 16:45 52.33620 9.97256 2991 ft 197 kts 23°
2026-04-20 16:45 52.34818 9.98194 2992 ft 188 kts 23°
2026-04-20 16:45 52.35985 9.99108 2996 ft 184 kts 23°
2026-04-20 16:45 52.37135 10.00007 2998 ft 182 kts 23°
2026-04-20 16:46 52.38280 10.00902 2983 ft 182 kts 23°
2026-04-20 16:46 52.39406 10.01783 2985 ft 183 kts 23°
2026-04-20 16:46 52.40569 10.02694 2985 ft 183 kts 22°
2026-04-20 16:46 52.41754 10.03217 2983 ft 179 kts 359°
2026-04-20 16:47 52.42973 10.02830 2984 ft 180 kts 336°
2026-04-20 16:47 52.43969 10.01589 2981 ft 183 kts 311°
2026-04-20 16:47 52.44538 9.99711 2982 ft 188 kts 285°
2026-04-20 16:47 52.44643 9.97560 2985 ft 190 kts 277°
2026-04-20 16:48 52.44701 9.95436 3006 ft 176 kts 277°
2026-04-20 16:48 52.44751 9.93528 2873 ft 158 kts 278°
2026-04-20 16:48 52.44796 9.91850 2736 ft 141 kts 278°
2026-04-20 16:48 52.44844 9.90234 2372 ft 142 kts 278°
2026-04-20 16:49 52.44894 9.88628 2011 ft 141 kts 278°
2026-04-20 16:49 52.44943 9.87026 1643 ft 140 kts 277°
2026-04-20 16:49 52.44989 9.85461 1402 ft 133 kts 277°
2026-04-20 16:49 52.45027 9.83941 1335 ft 133 kts 276°
2026-04-20 16:50 52.45035 9.82429 1280 ft 132 kts 276°
2026-04-20 16:50 52.45074 9.80926 1290 ft 132 kts 278°
2026-04-20 16:50 52.45135 9.79419 1264 ft 132 kts 277°
2026-04-20 16:50 52.45169 9.77908 1158 ft 133 kts 276°
2026-04-20 16:51 52.45227 9.76426 961 ft 131 kts 278°
2026-04-20 16:51 52.45292 9.74927 709 ft 130 kts 275°
2026-04-20 16:51 52.45334 9.73451 535 ft 130 kts 271°
2026-04-20 16:51 52.45378 9.71991 319 ft 129 kts 274°
2026-04-20 16:52 52.45421 9.70555 194 ft 117 kts 273°
2026-04-20 16:52 52.45451 9.69463 188 ft 73 kts 272°
2026-04-20 16:52 52.45466 9.68806 183 ft 41 kts 273°
2026-04-20 16:52 52.45482 9.68369 180 ft 32 kts 272°
2026-04-20 16:53 52.45511 9.68258 180 ft 1 kts 355°
2026-04-20 16:53 52.45515 9.68258 180 ft 3 kts 355°
2026-04-20 16:53 52.45587 9.68261 183 ft 8 kts
2026-04-20 16:53 52.45637 9.68279 184 ft 7 kts 35°
2026-04-20 16:54 52.45644 9.68347 183 ft 6 kts 91°
2026-04-20 16:54 52.45641 9.68424 182 ft 9 kts 95°
2026-04-20 16:54 52.45640 9.68581 182 ft 17 kts 92°
2026-04-20 16:54 52.45632 9.68782 183 ft 16 kts 92°
2026-04-20 16:55 52.45627 9.68994 181 ft 17 kts 93°
2026-04-20 16:55 52.45667 9.69146 181 ft 14 kts 19°
2026-04-20 16:55 52.45767 9.69192 179 ft 15 kts 30°
2026-04-20 16:55 52.45856 9.69155 178 ft 13 kts 330°
2026-04-20 16:56 52.45923 9.69188 178 ft 10 kts 70°
2026-04-20 16:56 52.45918 9.69267 178 ft 3 kts 96°
2026-04-20 16:56 52.45917 9.69296 178 ft 0 kts 93°